Location: Bluejay Creek
(37.7819°N, 119.6118°W)
Time: 18:52:40
(UTC+00:00)

USA 234 - Pass Details

Date: 05 August 2024
Orbit: 1100 x 1107 km, 123.0° (Epoch: 08 July)

Event Time Altitude Azimuth Distance (km) Brightness Sun altitude
Rises 12:02:31 0° 43° (NE) 3,930 7.9 -12.0°
Reaches altitude 10° 12:05:00 10° 42° (NE) 2,969 6.9 -11.5°
Maximum altitude 12:11:33 74° 318° (NW) 1,144 3.3 -10.4°
Enters shadow 12:17:49 11° 235° (SW) 2,869 4.8 -9.4°
